owner,sensor,date,latitude,longitude,vertical_datum,direction_of_sea_water_velocity,sea_water_speed,upward_sea_water_velocity,qcFlag 
TABS,ioos:station:wmo:42051:1,2015-02-01T00:00:00Z,29.6350,-93.6417,2.0,260.6896607,23.48941038,-99999.0,'11111222,11111222,99999999' 
TABS,ioos:station:wmo:42051:1,2015-02-01T00:30:00Z,29.6350,-93.6417,2.0,266.3391019,22.08505603,-99999.0,'11111222,11111222,99999999' 
TABS,ioos:station:wmo:42051:1,2015-02-01T01:00:00Z,29.6350,-93.6417,2.0,268.3005081,19.8987487,-99999.0,'11111222,11111222,99999999' 
TABS,ioos:station:wmo:42051:1,2015-02-01T01:30:00Z,29.6350,-93.6417,2.0,268.422344,22.88867187,-99999.0,'11111222,11111222,99999999' 
TABS,ioos:station:wmo:42051:1,2015-02-01T02:00:00Z,29.6350,-93.6417,2.0,248.3880145,19.05987408,-99999.0,'11111222,11111222,99999999' 
TABS,ioos:station:wmo:42051:1,2015-02-01T02:30:00Z,29.6350,-93.6417,2.0,262.1906049,19.43018528,-99999.0,'11111222,11111222,99999999' 
TABS,ioos:station:wmo:42051:1,2015-02-01T03:00:00Z,29.6350,-93.6417,2.0,256.5645832,18.72235562,-99999.0,'11111222,11111222,99999999' 
TABS,ioos:station:wmo:42051:1,2015-02-01T03:30:00Z,29.6350,-93.6417,2.0,259.4718176,22.98695282,-99999.0,'11111222,11111222,99999999' 
TABS,ioos:station:wmo:42051:1,2015-02-01T04:00:00Z,29.6350,-93.6417,2.0,264.4651392,23.95165339,-99999.0,'11111222,11111222,99999999' 
TABS,ioos:station:wmo:42051:1,2015-02-01T04:30:00Z,29.6350,-93.6417,2.0,263.28555,23.86365647,-99999.0,'11111222,11111222,99999999' 
TABS,ioos:station:wmo:42051:1,2015-02-01T05:00:00Z,29.6350,-93.6417,2.0,260.8666354,21.73554922,-99999.0,'11111222,11111222,99999999' 
TABS,ioos:station:wmo:42051:1,2015-02-01T05:30:00Z,29.6350,-93.6417,2.0,251.7054871,23.16059153,-99999.0,'11111222,11111222,99999999' 
TABS,ioos:station:wmo:42051:1,2015-02-01T06:00:00Z,29.6350,-93.6417,2.0,253.5022175,23.38260037,-99999.0,'11111222,11111222,99999999' 
TABS,ioos:station:wmo:42051:1,2015-02-01T06:30:00Z,29.6350,-93.6417,2.0,249.6804841,24.91008029,-99999.0,'11111222,11111222,99999999' 
TABS,ioos:station:wmo:42051:1,2015-02-01T07:00:00Z,29.6350,-93.6417,2.0,252.5482229,25.97561356,-99999.0,'11111222,11111222,99999999' 
TABS,ioos:station:wmo:42051:1,2015-02-01T07:30:00Z,29.6350,-93.6417,2.0,255.0056277,27.13382575,-99999.0,'11111222,11111222,99999999' 
TABS,ioos:station:wmo:42051:1,2015-02-01T08:00:00Z,29.6350,-93.6417,2.0,257.720545,22.14664083,-99999.0,'11111222,11111222,99999999' 
TABS,ioos:station:wmo:42051:1,2015-02-01T08:30:00Z,29.6350,-93.6417,2.0,261.3239069,22.87169867,-99999.0,'11111222,11111222,99999999' 
TABS,ioos:station:wmo:42051:1,2015-02-01T09:00:00Z,29.6350,-93.6417,2.0,259.4662608,17.94235213,-99999.0,'11111222,11111222,99999999' 
TABS,ioos:station:wmo:42051:1,2015-02-01T09:30:00Z,29.6350,-93.6417,2.0,247.7490173,15.15877634,-99999.0,'11111222,11111222,99999999' 
TABS,ioos:station:wmo:42051:1,2015-02-01T10:00:00Z,29.6350,-93.6417,2.0,253.7021288,17.21160364,-99999.0,'11111222,11111222,99999999' 
TABS,ioos:station:wmo:42051:1,2015-02-01T10:30:00Z,29.6350,-93.6417,2.0,249.2513307,14.65012287,-99999.0,'11111222,11111222,99999999' 
TABS,ioos:station:wmo:42051:1,2015-02-01T11:00:00Z,29.6350,-93.6417,2.0,258.5343606,15.19317281,-99999.0,'11111222,11111222,99999999' 
TABS,ioos:station:wmo:42051:1,2015-02-01T11:30:00Z,29.6350,-93.6417,2.0,247.241691,14.68311956,-99999.0,'11111222,11111222,99999999' 
TABS,ioos:station:wmo:42051:1,2015-02-01T12:00:00Z,29.6350,-93.6417,2.0,244.020527,13.99404516,-99999.0,'11111222,11111222,99999999' 
TABS,ioos:station:wmo:42051:1,2015-02-01T12:30:00Z,29.6350,-93.6417,2.0,224.5371664,14.01531305,-99999.0,'11111222,11111222,99999999' 
TABS,ioos:station:wmo:42051:1,2015-02-01T13:00:00Z,29.6350,-93.6417,2.0,240.0969164,16.20768028,-99999.0,'11111222,11111222,99999999' 
TABS,ioos:station:wmo:42051:1,2015-02-01T13:30:00Z,29.6350,-93.6417,2.0,247.6477821,11.01781285,-99999.0,'11111222,11111222,99999999' 
TABS,ioos:station:wmo:42051:1,2015-02-01T14:00:00Z,29.6350,-93.6417,2.0,236.4232344,8.389856971,-99999.0,'11133222,11111222,99999999' 
TABS,ioos:station:wmo:42051:1,2015-02-01T14:30:00Z,29.6350,-93.6417,2.0,286.9991152,7.696239341,-99999.0,'11133222,11111222,99999999' 
TABS,ioos:station:wmo:42051:1,2015-02-01T15:00:00Z,29.6350,-93.6417,2.0,267.4146235,8.869024749,-99999.0,'11133222,11111222,99999999' 
TABS,ioos:station:wmo:42051:1,2015-02-01T15:30:00Z,29.6350,-93.6417,2.0,279.2534683,9.453004813,-99999.0,'11133222,11111222,99999999' 
TABS,ioos:station:wmo:42051:1,2015-02-01T16:00:00Z,29.6350,-93.6417,2.0,274.3098705,14.7717636,-99999.0,'11111222,11111222,99999999' 
TABS,ioos:station:wmo:42051:1,2015-02-01T16:30:00Z,29.6350,-93.6417,2.0,268.5813544,9.292846711,-99999.0,'11133222,11111222,99999999' 
TABS,ioos:station:wmo:42051:1,2015-02-01T17:00:00Z,29.6350,-93.6417,2.0,268.5725806,11.243487,-99999.0,'11111222,11111222,99999999' 
TABS,ioos:station:wmo:42051:1,2015-02-01T17:30:00Z,29.6350,-93.6417,2.0,280.810253,9.437467881,-99999.0,'11133222,11111222,99999999' 
TABS,ioos:station:wmo:42051:1,2015-02-01T18:00:00Z,29.6350,-93.6417,2.0,285.9220546,6.634515808,-99999.0,'11133222,11111222,99999999' 
TABS,ioos:station:wmo:42051:1,2015-02-01T18:30:00Z,29.6350,-93.6417,2.0,301.9223174,7.281133154,-99999.0,'11133222,11111222,99999999' 
TABS,ioos:station:wmo:42051:1,2015-02-01T19:00:00Z,29.6350,-93.6417,2.0,297.5469018,7.049120513,-99999.0,'11133222,11111222,99999999' 
TABS,ioos:station:wmo:42051:1,2015-02-01T19:30:00Z,29.6350,-93.6417,2.0,320.3230539,5.716861027,-99999.0,'11133222,11111222,99999999' 
TABS,ioos:station:wmo:42051:1,2015-02-01T20:00:00Z,29.6350,-93.6417,2.0,293.4454643,8.545501741,-99999.0,'11133222,11111222,99999999' 
TABS,ioos:station:wmo:42051:1,2015-02-01T20:30:00Z,29.6350,-93.6417,2.0,287.2494011,7.4867149,-99999.0,'11133222,11111222,99999999' 
TABS,ioos:station:wmo:42051:1,2015-02-01T21:00:00Z,29.6350,-93.6417,2.0,303.4065146,6.157247762,-99999.0,'11133222,11111222,99999999' 
TABS,ioos:station:wmo:42051:1,2015-02-01T21:30:00Z,29.6350,-93.6417,2.0,208.1636351,3.686475281,-99999.0,'11133222,11111222,99999999' 
TABS,ioos:station:wmo:42051:1,2015-02-01T22:00:00Z,29.6350,-93.6417,2.0,283.2409099,5.763202235,-99999.0,'11133222,11111222,99999999' 
TABS,ioos:station:wmo:42051:1,2015-02-01T22:30:00Z,29.6350,-93.6417,2.0,291.0942048,5.112582518,-99999.0,'11133222,11111222,99999999' 
TABS,ioos:station:wmo:42051:1,2015-02-01T23:00:00Z,29.6350,-93.6417,2.0,282.5291993,1.751713447,-99999.0,'11133222,11111222,99999999' 
TABS,ioos:station:wmo:42051:1,2015-02-01T23:30:00Z,29.6350,-93.6417,2.0,240.4392937,0.770259696,-99999.0,'11133222,11111222,99999999' 
TABS,ioos:station:wmo:42051:1,2015-02-02T00:00:00Z,29.6350,-93.6417,2.0,245.4559502,1.901841213,-99999.0,'11133222,11111222,99999999' 
TABS,ioos:station:wmo:42051:1,2015-02-02T00:30:00Z,29.6350,-93.6417,2.0,288.992479,3.902435137,-99999.0,'11133222,11111222,99999999' 
TABS,ioos:station:wmo:42051:1,2015-02-02T01:00:00Z,29.6350,-93.6417,2.0,230.8218723,3.973222873,-99999.0,'11133222,11111222,99999999' 
TABS,ioos:station:wmo:42051:1,2015-02-02T01:30:00Z,29.6350,-93.6417,2.0,237.8000928,4.69157756,-99999.0,'11133222,11111222,99999999' 
TABS,ioos:station:wmo:42051:1,2015-02-02T02:00:00Z,29.6350,-93.6417,2.0,333.7279169,3.501728145,-99999.0,'11133222,11111222,99999999' 
TABS,ioos:station:wmo:42051:1,2015-02-02T02:30:00Z,29.6350,-93.6417,2.0,185.3975257,5.102626775,-99999.0,'11133222,11111222,99999999' 
TABS,ioos:station:wmo:42051:1,2015-02-02T03:00:00Z,29.6350,-93.6417,2.0,225.7113949,2.277059507,-99999.0,'11133222,11111222,99999999' 
TABS,ioos:station:wmo:42051:1,2015-02-02T03:30:00Z,29.6350,-93.6417,2.0,263.4176498,4.449325792,-99999.0,'11133222,11111222,99999999' 
TABS,ioos:station:wmo:42051:1,2015-02-02T04:00:00Z,29.6350,-93.6417,2.0,261.6713472,5.316060572,-99999.0,'11133222,11111222,99999999' 
TABS,ioos:station:wmo:42051:1,2015-02-02T04:30:00Z,29.6350,-93.6417,2.0,310.1851487,5.222738745,-99999.0,'11133222,11111222,99999999' 
TABS,ioos:station:wmo:42051:1,2015-02-02T05:00:00Z,29.6350,-93.6417,2.0,320.609577,6.366160538,-99999.0,'11133222,11111222,99999999' 
TABS,ioos:station:wmo:42051:1,2015-02-02T05:30:00Z,29.6350,-93.6417,2.0,262.3035454,6.720535693,-99999.0,'11133222,11111222,99999999' 
TABS,ioos:station:wmo:42051:1,2015-02-02T06:00:00Z,29.6350,-93.6417,2.0,265.1262311,8.239787619,-99999.0,'11133222,11111222,99999999' 
TABS,ioos:station:wmo:42051:1,2015-02-02T06:30:00Z,29.6350,-93.6417,2.0,267.7799287,9.0367804,-99999.0,'11133222,11111222,99999999' 
TABS,ioos:station:wmo:42051:1,2015-02-02T07:00:00Z,29.6350,-93.6417,2.0,254.4465776,7.421765289,-99999.0,'11133222,11111222,99999999' 
TABS,ioos:station:wmo:42051:1,2015-02-02T07:30:00Z,29.6350,-93.6417,2.0,277.1821302,7.518989294,-99999.0,'11133222,11111222,99999999' 
TABS,ioos:station:wmo:42051:1,2015-02-02T08:00:00Z,29.6350,-93.6417,2.0,233.4116943,8.942108253,-99999.0,'11133222,11111222,99999999' 
TABS,ioos:station:wmo:42051:1,2015-02-02T08:30:00Z,29.6350,-93.6417,2.0,222.4221992,8.805316576,-99999.0,'11133222,11111222,99999999' 
TABS,ioos:station:wmo:42051:1,2015-02-02T09:00:00Z,29.6350,-93.6417,2.0,235.5469261,6.876118091,-99999.0,'11133222,11111222,99999999' 
TABS,ioos:station:wmo:42051:1,2015-02-02T09:30:00Z,29.6350,-93.6417,2.0,263.2509773,6.041862296,-99999.0,'11133222,11111222,99999999' 
TABS,ioos:station:wmo:42051:1,2015-02-02T10:00:00Z,29.6350,-93.6417,2.0,64.01446674,3.537640457,-99999.0,'11133222,11111222,99999999' 
TABS,ioos:station:wmo:42051:1,2015-02-02T10:30:00Z,29.6350,-93.6417,2.0,114.7674968,5.27524407,-99999.0,'11133222,11111222,99999999' 
TABS,ioos:station:wmo:42051:1,2015-02-02T11:00:00Z,29.6350,-93.6417,2.0,78.77586583,5.240229003,-99999.0,'11133222,11111222,99999999' 
TABS,ioos:station:wmo:42051:1,2015-02-02T11:30:00Z,29.6350,-93.6417,2.0,117.4672081,2.840158446,-99999.0,'11133222,11111222,99999999' 
TABS,ioos:station:wmo:42051:1,2015-02-02T12:00:00Z,29.6350,-93.6417,2.0,200.2654396,2.771569952,-99999.0,'11133222,11111222,99999999' 
TABS,ioos:station:wmo:42051:1,2015-02-02T12:30:00Z,29.6350,-93.6417,2.0,254.290978,1.329661611,-99999.0,'11133222,11111222,99999999' 
TABS,ioos:station:wmo:42051:1,2015-02-02T13:00:00Z,29.6350,-93.6417,2.0,320.8448679,2.708154353,-99999.0,'11133222,11111222,99999999' 
TABS,ioos:station:wmo:42051:1,2015-02-02T13:30:00Z,29.6350,-93.6417,2.0,307.9198578,3.384567919,-99999.0,'11133222,11111222,99999999' 
TABS,ioos:station:wmo:42051:1,2015-02-02T14:00:00Z,29.6350,-93.6417,2.0,308.9014547,5.191261889,-99999.0,'11133222,11111222,99999999' 
TABS,ioos:station:wmo:42051:1,2015-02-02T14:30:00Z,29.6350,-93.6417,2.0,257.3574563,2.19317122,-99999.0,'11133222,11111222,99999999' 
TABS,ioos:station:wmo:42051:1,2015-02-02T15:00:00Z,29.6350,-93.6417,2.0,332.9200529,6.963397159,-99999.0,'11133222,11111222,99999999' 
TABS,ioos:station:wmo:42051:1,2015-02-02T15:30:00Z,29.6350,-93.6417,2.0,334.1881674,7.48700207,-99999.0,'11133222,11111222,99999999' 
TABS,ioos:station:wmo:42051:1,2015-02-02T16:00:00Z,29.6350,-93.6417,2.0,359.9215077,7.280006868,-99999.0,'11133222,11144222,99999999' 
TABS,ioos:station:wmo:42051:1,2015-02-02T16:30:00Z,29.6350,-93.6417,2.0,353.8032448,5.743561613,-99999.0,'11133222,11111222,99999999' 
TABS,ioos:station:wmo:42051:1,2015-02-02T17:00:00Z,29.6350,-93.6417,2.0,339.0567211,7.441646323,-99999.0,'11133222,11111222,99999999' 
TABS,ioos:station:wmo:42051:1,2015-02-02T17:30:00Z,29.6350,-93.6417,2.0,350.4706936,7.006689661,-99999.0,'11133222,11111222,99999999' 
TABS,ioos:station:wmo:42051:1,2015-02-02T18:00:00Z,29.6350,-93.6417,2.0,344.0877111,7.185332282,-99999.0,'11133222,11111222,99999999' 
TABS,ioos:station:wmo:42051:1,2015-02-02T18:30:00Z,29.6350,-93.6417,2.0,298.5027903,4.233060359,-99999.0,'11133222,11111222,99999999' 
TABS,ioos:station:wmo:42051:1,2015-02-02T19:00:00Z,29.6350,-93.6417,2.0,274.1330979,3.469020035,-99999.0,'11133222,11111222,99999999' 
TABS,ioos:station:wmo:42051:1,2015-02-02T19:30:00Z,29.6350,-93.6417,2.0,323.423053,3.52404597,-99999.0,'11133222,11111222,99999999' 
TABS,ioos:station:wmo:42051:1,2015-02-02T20:00:00Z,29.6350,-93.6417,2.0,319.6123517,4.660783196,-99999.0,'11133222,11111222,99999999' 
TABS,ioos:station:wmo:42051:1,2015-02-02T20:30:00Z,29.6350,-93.6417,2.0,325.2712954,2.141494805,-99999.0,'11133222,11111222,99999999' 
TABS,ioos:station:wmo:42051:1,2015-02-02T21:00:00Z,29.6350,-93.6417,2.0,259.4915815,5.044601074,-99999.0,'11133222,11111222,99999999' 
TABS,ioos:station:wmo:42051:1,2015-02-02T21:30:00Z,29.6350,-93.6417,2.0,274.7421996,4.35490528,-99999.0,'11133222,11111222,99999999' 
TABS,ioos:station:wmo:42051:1,2015-02-02T22:00:00Z,29.6350,-93.6417,2.0,267.6650781,4.173463789,-99999.0,'11133222,11111222,99999999' 
TABS,ioos:station:wmo:42051:1,2015-02-02T22:30:00Z,29.6350,-93.6417,2.0,241.4658274,7.159643846,-99999.0,'11133222,11111222,99999999' 
TABS,ioos:station:wmo:42051:1,2015-02-02T23:00:00Z,29.6350,-93.6417,2.0,310.3087551,2.334202219,-99999.0,'11133222,11111222,99999999' 
TABS,ioos:station:wmo:42051:1,2015-02-02T23:30:00Z,29.6350,-93.6417,2.0,22.22977957,1.242336508,-99999.0,'11133222,11111222,99999999' 
TABS,ioos:station:wmo:42051:1,2015-02-03T00:00:00Z,29.6350,-93.6417,2.0,146.1663229,3.322664593,-99999.0,'11133222,11111222,99999999' 
TABS,ioos:station:wmo:42051:1,2015-02-03T00:30:00Z,29.6350,-93.6417,2.0,299.1164991,1.808535319,-99999.0,'11133222,11111222,99999999' 
TABS,ioos:station:wmo:42051:1,2015-02-03T01:00:00Z,29.6350,-93.6417,2.0,227.4962255,5.032305635,-99999.0,'11133222,11111222,99999999' 
TABS,ioos:station:wmo:42051:1,2015-02-03T01:30:00Z,29.6350,-93.6417,2.0,248.1261506,2.952558213,-99999.0,'11133222,11111222,99999999' 
TABS,ioos:station:wmo:42051:1,2015-02-03T02:00:00Z,29.6350,-93.6417,2.0,204.8290781,4.429446918,-99999.0,'11133222,11111222,99999999' 
TABS,ioos:station:wmo:42051:1,2015-02-03T02:30:00Z,29.6350,-93.6417,2.0,299.878547,4.797676521,-99999.0,'11133222,11111222,99999999' 
TABS,ioos:station:wmo:42051:1,2015-02-03T03:00:00Z,29.6350,-93.6417,2.0,179.6019095,1.440034722,-99999.0,'11133222,11111222,99999999' 
TABS,ioos:station:wmo:42051:1,2015-02-03T03:30:00Z,29.6350,-93.6417,2.0,241.7786725,3.404717316,-99999.0,'11133222,11111222,99999999' 
TABS,ioos:station:wmo:42051:1,2015-02-03T04:00:00Z,29.6350,-93.6417,2.0,335.0822462,1.400357097,-99999.0,'11133222,11111222,99999999' 
TABS,ioos:station:wmo:42051:1,2015-02-03T04:30:00Z,29.6350,-93.6417,2.0,243.2227771,2.419442084,-99999.0,'11133222,11111222,99999999' 
TABS,ioos:station:wmo:42051:1,2015-02-03T05:00:00Z,29.6350,-93.6417,2.0,297.8600065,2.375310506,-99999.0,'11133222,11111222,99999999' 
TABS,ioos:station:wmo:42051:1,2015-02-03T05:30:00Z,29.6350,-93.6417,2.0,293.3798902,4.989669328,-99999.0,'11133222,11111222,99999999' 
TABS,ioos:station:wmo:42051:1,2015-02-03T06:00:00Z,29.6350,-93.6417,2.0,304.887078,6.24173854,-99999.0,'11133222,11111222,99999999' 
TABS,ioos:station:wmo:42051:1,2015-02-03T06:30:00Z,29.6350,-93.6417,2.0,234.1924655,5.931020148,-99999.0,'11133222,11111222,99999999' 
TABS,ioos:station:wmo:42051:1,2015-02-03T07:00:00Z,29.6350,-93.6417,2.0,311.8665876,6.338083306,-99999.0,'11133222,11111222,99999999' 
TABS,ioos:station:wmo:42051:1,2015-02-03T07:30:00Z,29.6350,-93.6417,2.0,260.4117685,9.005798132,-99999.0,'11133222,11111222,99999999' 
TABS,ioos:station:wmo:42051:1,2015-02-03T08:00:00Z,29.6350,-93.6417,2.0,272.8020154,9.411248589,-99999.0,'11133222,11111222,99999999' 
TABS,ioos:station:wmo:42051:1,2015-02-03T08:30:00Z,29.6350,-93.6417,2.0,259.7373311,10.83330513,-99999.0,'11111222,11111222,99999999' 
TABS,ioos:station:wmo:42051:1,2015-02-03T09:00:00Z,29.6350,-93.6417,2.0,263.3852624,9.462985787,-99999.0,'11133222,11111222,99999999' 
TABS,ioos:station:wmo:42051:1,2015-02-03T09:30:00Z,29.6350,-93.6417,2.0,249.2827525,10.00705751,-99999.0,'11111222,11111222,99999999' 
TABS,ioos:station:wmo:42051:1,2015-02-03T10:00:00Z,29.6350,-93.6417,2.0,237.8911958,12.96273505,-99999.0,'11111222,11111222,99999999' 
TABS,ioos:station:wmo:42051:1,2015-02-03T10:30:00Z,29.6350,-93.6417,2.0,247.8315026,11.02495805,-99999.0,'11111222,11111222,99999999' 
TABS,ioos:station:wmo:42051:1,2015-02-03T11:00:00Z,29.6350,-93.6417,2.0,246.2684487,10.31193968,-99999.0,'11111222,11111222,99999999' 
TABS,ioos:station:wmo:42051:1,2015-02-03T11:30:00Z,29.6350,-93.6417,2.0,240.1432579,14.02091295,-99999.0,'11111222,11111222,99999999' 
TABS,ioos:station:wmo:42051:1,2015-02-03T12:00:00Z,29.6350,-93.6417,2.0,258.7042484,15.41865104,-99999.0,'11111222,11111222,99999999' 
TABS,ioos:station:wmo:42051:1,2015-02-03T12:30:00Z,29.6350,-93.6417,2.0,230.188614,13.36961106,-99999.0,'11111222,11111222,99999999' 
TABS,ioos:station:wmo:42051:1,2015-02-03T13:00:00Z,29.6350,-93.6417,2.0,238.325955,17.57823939,-99999.0,'11111222,11111222,99999999' 
TABS,ioos:station:wmo:42051:1,2015-02-03T13:30:00Z,29.6350,-93.6417,2.0,239.024362,17.04009976,-99999.0,'11111222,11111222,99999999' 
TABS,ioos:station:wmo:42051:1,2015-02-03T14:00:00Z,29.6350,-93.6417,2.0,250.2213254,13.62367425,-99999.0,'11111222,11111222,99999999' 
TABS,ioos:station:wmo:42051:1,2015-02-03T14:30:00Z,29.6350,-93.6417,2.0,242.0160992,15.53648931,-99999.0,'11111222,11111222,99999999' 
TABS,ioos:station:wmo:42051:1,2015-02-03T15:00:00Z,29.6350,-93.6417,2.0,258.2697477,26.75880416,-99999.0,'11111222,11111222,99999999' 
TABS,ioos:station:wmo:42051:1,2015-02-03T15:30:00Z,29.6350,-93.6417,2.0,272.5187453,21.62088111,-99999.0,'11111222,11111222,99999999' 
TABS,ioos:station:wmo:42051:1,2015-02-03T16:00:00Z,29.6350,-93.6417,2.0,270.0004209,24.49,-99999.0,'11111222,11111222,99999999' 
TABS,ioos:station:wmo:42051:1,2015-02-03T16:30:00Z,29.6350,-93.6417,2.0,266.8554769,22.24348219,-99999.0,'11111222,11111222,99999999' 
TABS,ioos:station:wmo:42051:1,2015-02-03T17:00:00Z,29.6350,-93.6417,2.0,264.7264565,23.0676245,-99999.0,'11111222,11111222,99999999' 
TABS,ioos:station:wmo:42051:1,2015-02-03T17:30:00Z,29.6350,-93.6417,2.0,264.4080344,21.55255205,-99999.0,'11111222,11111222,99999999' 
TABS,ioos:station:wmo:42051:1,2015-02-03T18:00:00Z,29.6350,-93.6417,2.0,265.3691356,24.65045639,-99999.0,'11111222,11111222,99999999' 
TABS,ioos:station:wmo:42051:1,2015-02-03T18:30:00Z,29.6350,-93.6417,2.0,269.0432223,25.16350532,-99999.0,'11111222,11111222,99999999' 
TABS,ioos:station:wmo:42051:1,2015-02-03T19:00:00Z,29.6350,-93.6417,2.0,258.9103098,22.40839575,-99999.0,'11111222,11111222,99999999' 
TABS,ioos:station:wmo:42051:1,2015-02-03T19:30:00Z,29.6350,-93.6417,2.0,261.5269981,24.84110505,-99999.0,'11111222,11111222,99999999' 
TABS,ioos:station:wmo:42051:1,2015-02-03T20:00:00Z,29.6350,-93.6417,2.0,254.0748984,26.64245672,-99999.0,'11111222,11111222,99999999' 
TABS,ioos:station:wmo:42051:1,2015-02-03T20:30:00Z,29.6350,-93.6417,2.0,259.6080203,20.67918035,-99999.0,'11111222,11111222,99999999' 
TABS,ioos:station:wmo:42051:1,2015-02-03T21:00:00Z,29.6350,-93.6417,2.0,244.9683328,19.21470791,-99999.0,'11111222,11111222,99999999' 
TABS,ioos:station:wmo:42051:1,2015-02-03T21:30:00Z,29.6350,-93.6417,2.0,264.1535031,20.61722823,-99999.0,'11111222,11111222,99999999' 
TABS,ioos:station:wmo:42051:1,2015-02-03T22:00:00Z,29.6350,-93.6417,2.0,235.905917,17.71479043,-99999.0,'11111222,11111222,99999999' 
TABS,ioos:station:wmo:42051:1,2015-02-03T22:30:00Z,29.6350,-93.6417,2.0,252.3581214,14.38658055,-99999.0,'11111222,11111222,99999999' 
TABS,ioos:station:wmo:42051:1,2015-02-03T23:00:00Z,29.6350,-93.6417,2.0,235.8604735,17.33768727,-99999.0,'11111222,11111222,99999999' 
TABS,ioos:station:wmo:42051:1,2015-02-03T23:30:00Z,29.6350,-93.6417,2.0,262.8207554,13.20350332,-99999.0,'11111222,11111222,99999999' 
TABS,ioos:station:wmo:42051:1,2015-02-04T00:00:00Z,29.6350,-93.6417,2.0,248.528261,8.059311385,-99999.0,'11133222,11111222,99999999' 
TABS,ioos:station:wmo:42051:1,2015-02-04T00:30:00Z,29.6350,-93.6417,2.0,264.4377636,8.047887922,-99999.0,'11133222,11111222,99999999' 
TABS,ioos:station:wmo:42051:1,2015-02-04T01:00:00Z,29.6350,-93.6417,2.0,267.8709863,11.30780262,-99999.0,'11111222,11111222,99999999' 
TABS,ioos:station:wmo:42051:1,2015-02-04T01:30:00Z,29.6350,-93.6417,2.0,278.330938,14.14929327,-99999.0,'11111222,11111222,99999999' 
TABS,ioos:station:wmo:42051:1,2015-02-04T02:00:00Z,29.6350,-93.6417,2.0,272.0081177,10.84665847,-99999.0,'11111222,11111222,99999999' 
TABS,ioos:station:wmo:42051:1,2015-02-04T02:30:00Z,29.6350,-93.6417,2.0,267.4491204,8.988904271,-99999.0,'11133222,11111222,99999999' 
TABS,ioos:station:wmo:42051:1,2015-02-04T03:00:00Z,29.6350,-93.6417,2.0,286.3899229,11.87243025,-99999.0,'11111222,11111222,99999999' 
TABS,ioos:station:wmo:42051:1,2015-02-04T03:30:00Z,29.6350,-93.6417,2.0,274.7533958,13.39606659,-99999.0,'11111222,11111222,99999999' 
TABS,ioos:station:wmo:42051:1,2015-02-04T04:00:00Z,29.6350,-93.6417,2.0,282.7968447,9.752215133,-99999.0,'11133222,11111222,99999999' 
TABS,ioos:station:wmo:42051:1,2015-02-04T04:30:00Z,29.6350,-93.6417,2.0,298.6506761,3.441351479,-99999.0,'11133222,11111222,99999999' 
TABS,ioos:station:wmo:42051:1,2015-02-04T05:00:00Z,29.6350,-93.6417,2.0,258.7264876,9.15666424,-99999.0,'11133222,11111222,99999999' 
TABS,ioos:station:wmo:42051:1,2015-02-04T05:30:00Z,29.6350,-93.6417,2.0,262.319606,12.42142101,-99999.0,'11111222,11111222,99999999' 
TABS,ioos:station:wmo:42051:1,2015-02-04T06:00:00Z,29.6350,-93.6417,2.0,273.641274,16.06241887,-99999.0,'11111222,11111222,99999999' 
TABS,ioos:station:wmo:42051:1,2015-02-04T06:30:00Z,29.6350,-93.6417,2.0,262.9724615,12.34271445,-99999.0,'11111222,11111222,99999999' 
TABS,ioos:station:wmo:42051:1,2015-02-04T07:00:00Z,29.6350,-93.6417,2.0,251.8561458,17.40540146,-99999.0,'11111222,11111222,99999999' 
TABS,ioos:station:wmo:42051:1,2015-02-04T07:30:00Z,29.6350,-93.6417,2.0,262.1383329,14.76879481,-99999.0,'11111222,11111222,99999999' 
TABS,ioos:station:wmo:42051:1,2015-02-04T08:00:00Z,29.6350,-93.6417,2.0,258.7968519,19.9195507,-99999.0,'11111222,11111222,99999999' 
TABS,ioos:station:wmo:42051:1,2015-02-04T08:30:00Z,29.6350,-93.6417,2.0,255.8385415,18.92509974,-99999.0,'11111222,11111222,99999999' 
TABS,ioos:station:wmo:42051:1,2015-02-04T09:00:00Z,29.6350,-93.6417,2.0,259.4281367,18.25992881,-99999.0,'11111222,11111222,99999999' 
TABS,ioos:station:wmo:42051:1,2015-02-04T09:30:00Z,29.6350,-93.6417,2.0,266.0167537,11.51781663,-99999.0,'11111222,11111222,99999999' 
TABS,ioos:station:wmo:42051:1,2015-02-04T10:00:00Z,29.6350,-93.6417,2.0,257.3499157,15.93683155,-99999.0,'11111222,11111222,99999999' 
TABS,ioos:station:wmo:42051:1,2015-02-04T10:30:00Z,29.6350,-93.6417,2.0,254.2812753,14.21143554,-99999.0,'11111222,11111222,99999999' 
TABS,ioos:station:wmo:42051:1,2015-02-04T11:00:00Z,29.6350,-93.6417,2.0,244.4876258,12.6538097,-99999.0,'11111222,11111222,99999999' 
TABS,ioos:station:wmo:42051:1,2015-02-04T11:30:00Z,29.6350,-93.6417,2.0,249.0998262,19.11784507,-99999.0,'11111222,11111222,99999999' 
TABS,ioos:station:wmo:42051:1,2015-02-04T12:00:00Z,29.6350,-93.6417,2.0,250.891194,15.33494376,-99999.0,'11111222,11111222,99999999' 
TABS,ioos:station:wmo:42051:1,2015-02-04T12:30:00Z,29.6350,-93.6417,2.0,262.8484309,16.30684825,-99999.0,'11111222,11111222,99999999' 
TABS,ioos:station:wmo:42051:1,2015-02-04T13:00:00Z,29.6350,-93.6417,2.0,239.8592206,16.70911727,-99999.0,'11111222,11111222,99999999' 
TABS,ioos:station:wmo:42051:1,2015-02-04T13:30:00Z,29.6350,-93.6417,2.0,245.471916,16.98249098,-99999.0,'11111222,11111222,99999999' 
TABS,ioos:station:wmo:42051:1,2015-02-04T14:00:00Z,29.6350,-93.6417,2.0,268.0043382,12.63766197,-99999.0,'11111222,11111222,99999999' 
TABS,ioos:station:wmo:42051:1,2015-02-04T14:30:00Z,29.6350,-93.6417,2.0,263.0793388,11.45344053,-99999.0,'11111222,11111222,99999999' 
TABS,ioos:station:wmo:42051:1,2015-02-04T15:00:00Z,29.6350,-93.6417,2.0,253.2919369,13.00919675,-99999.0,'11111222,11111222,99999999' 
TABS,ioos:station:wmo:42051:1,2015-02-04T15:30:00Z,29.6350,-93.6417,2.0,251.3678615,15.65020447,-99999.0,'11111222,11111222,99999999' 
TABS,ioos:station:wmo:42051:1,2015-02-04T16:00:00Z,29.6350,-93.6417,2.0,253.0354204,14.29187881,-99999.0,'11111222,11111222,99999999' 